User: anonymous   Login
Location: Columbia
(38.9520°N, 92.3340°W)
Time: 04:27:47
(UTC-05:00)
Language:

Cosmos 158 Rocket - Orbit

View from above orbital plane
View from above orbital plane
View from above satellite
View from above satellite

Ground track
Ground track

The orbit data is extracted from the following two-line orbital elements,

1 02802U 67045B   14297.16176107  .00000397  00000-0  12279-3 0  5973
2 02802 074.0119 166.4870 0065868 093.3492 267.5202 14.43262326489447
Epoch (UTC): 24 October 2014 03:52:56
Eccentricity: 0.0065868
inclination: 74.0119°
perigee height: 701 km
apogee height: 794 km
right ascension of ascending node: 166.4870°
argument of perigee: 93.3492°
revolutions per day: 14.43262326
mean anomaly at epoch: 267.5202°
orbit number at epoch: 48944

The dashed part of the orbit path shows where the satellite is in the earth's shadow,  

DLR